Flag for Germany Weather past 2 weeks in Emmendingen, Baden-Württemberg, Germany

Now
50 °F

Clear.


Feels Like: 50 °F
Forecast: 49 / 70 °F
Wind: 1 mph from Northeast

Location: Lahr

Current Time: Apr 26, 2015 at 5:24:38 AM

Latest Report: Apr 26, 2015 at 5:00 AM


Visibility: 6 mi

Pressure: 29.86 "Hg

Humidity: 99%

Dew point: 49 °F

Location of EmmendingenLocation

Historic Weather in Emmendingen — Graph

°F

Emmendingen temperature yesterday

Maximum temperature yesterday: 64 °F (at 1:00 PM)
Minimum temperature yesterday: 48 °F (at 4:00 AM)
Average temperature yesterday: 57 °F

Past Weeks' High & Low Weather Summary

 TemperatureHumidityPressure
High80 °F (Apr 15, 5:00 PM)98% (Apr 18, 7:00 AM)30.47 "Hg (Apr 18, 7:00 AM)
Low33 °F (Apr 19, 7:00 AM)15% (Apr 15, 4:00 PM)29.84 "Hg (Apr 25, 6:00 PM)
Average56 °F60%30.16 "Hg
* Reported Apr 11 4:00 AM — Apr 26 4:00 AM, Emmendingen, Weather by CustomWeather, © 2015

Note: Actual official high and low records may vary slightly from our data, if they occured in-between our weather recording intervals... More about our weather records

Advertising

Emmendingen weather history for previous 24 hours

 ConditionsComfort  
Time TempWeatherWind HumidityBarometerVisibility
4:00 AM
Sun, Apr 26
53 °FPassing clouds.2 mph91%29.87 "Hg22 mi
3:00 AM56 °FOvercast.3 mph86%29.87 "Hg28 mi
2:00 AM56 °FOvercast.5 mph82%29.88 "Hg40 mi
1:00 AM56 °FOvercast.5 mph84%29.89 "Hg34 mi
12:00 AM57 °FOvercast.5 mph83%29.88 "Hg43 mi
11:00 PM
Sat, Apr 25
57 °FOvercast.5 mph84%29.88 "Hg43 mi
10:00 PM57 °FOvercast.5 mph87%29.88 "Hg22 mi
9:00 PM58 °FLight rain. Overcast.3 mph90%29.86 "Hg14 mi
8:00 PM59 °FSprinkles. Overcast.5 mph87%29.85 "Hg9 mi
7:00 PM61 °FOvercast.7 mph77%29.84 "Hg22 mi
6:00 PM62 °FOvercast.7 mph77%29.84 "Hg31 mi
5:00 PM61 °FLight rain. Overcast.8 mph80%29.85 "Hg19 mi
4:00 PM60 °FLight rain. Overcast.6 mph83%29.86 "Hg12 mi
3:00 PM61 °FLight rain. Overcast.3 mph80%29.88 "Hg12 mi
2:00 PM63 °FLight rain. Overcast.5 mph74%29.88 "Hg11 mi
1:00 PM64 °FLight rain. Overcast.7 mph66%29.87 "Hg31 mi
12:00 PM63 °FOvercast.6 mph67%29.86 "Hg28 mi
11:00 AM61 °FOvercast.7 mph70%29.87 "Hg28 mi
10:00 AM56 °FRain. Overcast.1 mph81%29.88 "Hg19 mi
9:00 AM54 °FRain. Overcast.1 mph83%29.89 "Hg12 mi
8:00 AM55 °FRain. Overcast.3 mph64%29.88 "Hg28 mi
7:00 AM54 °FLight rain. Overcast.5 mph59%29.88 "Hg17 mi
6:00 AM50 °FOvercast.2 mph69%29.87 "Hg19 mi
5:00 AM49 °FOvercast.1 mph73%29.87 "Hg16 mi
Weather by CustomWeather, © 2015

See weather overviewHow to use our weather pages